www.pogodaiklimat.ru

Погода и климат >> Архив погоды >> Россия >> Якутия >> Мирный


АРХИВ ПОГОДЫ в Мирном

Время (UTC), дата Ветер
(напр.,м/с)
 
Видим.   Явления Облачность Т
(С)
Тd
(С)
f
(%)
Тe
(С)
Тes
(С)
Комфортность P
(гПа)
Po
(гПа)
Тmin
(С)
Tmax
(С)
R
(мм)
R24
(мм)
S
(см)
12 9.07 СЗ 3 20 км 10/3 600 м
[Cb calv Ci sp]
+24.5 +16.7 62 +28 +28 душно 1003.0 963.1 +28.0 6
15 9.07 СЗ 3 50 км 10/3 600 м
[Cb calv Ci sp]
+17.7 +12.7 73 +18 +18 1005.3 964.3
18 9.07 З 2 20 км 10/0
[Ac cuf Ci sp]
+15.3 +11.8 80 +15 +15 1006.3 964.9
21 9.07 З 2 50 км 10/0
[Ac As Ci sp]
+16.4 +13.4 82 +17 +17 1006.9 965.6
00 10.07 ЮЗ 2 20 км 10/3 1000 м
[Sc Ac As Ci fib]
+19.6 +13.5 68 +22 +24 комфорт 1007.9 967.1 +12.8
03 10.07 З 1 20 км 10/0
[Ac As Ci fib]
+25.4 +13.1 46 +27 +35 жарко 1006.9 966.9
06 10.07 Ю 3 20 км 10/5 600 м
[Cu med, cong Ci sp]
+27.2 +9.1 32 +27 +31 жарко 1006.3 966.6
09 10.07 СЗ 1 20 км 10/3 1000 м
[Sc Ac As]
+25.1 +12.9 47 +27 +28 жарко 1007.1 967.1
12 10.07 ЮЗ 1 50 км 10/0
[Ac trans Ci sp]
+22.9 +13.9 57 +26 +27 жарко 1008.4 968.0 +27.2
15 10.07 ЮЗ 1 50 км 10/0
[Ac trans Ci sp]
+17.7 +14.0 79 +19 +19 1009.9 968.8
18 10.07 З 2 50 км 10/0
[Ac trans Ci sp]
+15.6 +15.6 100 +15 +15 1010.9 969.5
21 10.07 штиль 0 50 км 10/0
[Ci fib]
+17.6 +13.7 78 +18 +18 1012.6 971.2
00 11.07 З 2 50 км 10/0
[Ci fib]
+22.9 +15.6 63 +27 +32 душно 1011.4 970.9 +14.4
03 11.07 ЮВ 2 50 км 10/3 1500 м
[Sc Ci fib]
+26.8 +9.7 34 +27 +34 жарко 1010.0 970.0
06 11.07 В 2 50 км 10/5 1000 м
[Cb cap Ci fib]
+28.5 +9.3 30 +28 +33 жарко 1009.4 969.7
09 11.07 ЮВ 2 50 км 10/5 1000 м
[Cu med, cong Ci fib]
+28.9 +9.7 30 +29 +31 жарко 1008.2 968.5
12 11.07 ЮВ 2 20 км 10/0
[Ac lent Ci]
+24.8 +12.3 46 +27 +27 жарко 1008.5 968.4 +29.4
15 11.07 Ю 2 50 км 10/0
[Ac lent Ci sp]
+19.2 +13.2 68 +21 +21 комфорт 1009.4 968.4
18 11.07 ЮЗ 2 50 км 10/0
[Ac lent Ci sp]
+17.5 +12.9 74 +18 +18 1009.5 968.3
21 11.07 СВ 1 20 км 10/0
[Ci sp]
+14.9 +14.7 99 +15 +16 1009.7 968.2
00 12.07 Ю 3 50 км 10/0
[Ci fib]
+22.2 +15.5 66 +26 +30 душно 1008.1 967.6 +14.7
03 12.07 Ю 4 50 км 10/4 600 м
[Cu med, cong Ci fib]
+26.5 +14.7 48 +29 +33 жарко 1006.4 966.5
06 12.07 СЗ 7-11
{12}
50 км 10/8 600 м
[Cb cap Ci fib]
+24.7 +16.0 58 +28 +28 душно 1005.8 965.8
09 12.07 С 4
{13}
4000 м слаб. ливневой дождь 10/10 210 м
[Cb cap]
+17.4 +17.4 100 +17 +17 1008.3 967.3
12 12.07 СЗ 3 10 км слаб. ливневой дождь 10/10 210 м
[Cb cap]
+17.5 +17.5 100 +17 +17 1009.2 968.1 +28.3 2
15 12.07 З 1 4000 м слаб. ливневой дождь 10/6 450 м
[Cb cap Ac und]
+17.0 +17.0 100 +18 +18 1009.7 968.5
18 12.07 Ю 1 4000 м дымка {ливн. осадки} 10/6 450 м
[Cb cap Ac und]
+15.3 +15.3 100 +16 +16 1010.2 968.7
21 12.07 ЮЗ 2 10 км слаб. ливневой дождь 10/6 450 м
[Cb cap Ac und]
+13.9 +13.9 100 +13 +13 1010.9 969.2
00 13.07 З 2 10 км слаб. ливневой дождь 10/5 750 м
[Cb cap Ac As]
+14.8 +14.8 100 +14 +15 1010.9 969.4 +13.9 2
03 13.07 З 1 10 км слаб. ливневой дождь 10/10 120 м
[Cb cap]
+15.4 +15.4 100 +16 +16 1011.3 969.8
06 13.07 СЗ 3 10 км слаб. ливневой дождь 10/10 90 м
[Cb cap]
+15.9 +15.9 100 +15 +15 1010.9 969.5
09 13.07 С 1 10 км в посл. час ливневой дождь 10/6 210 м
[Cb cap Ac As]
+17.4 +17.4 100 +18 +19 1009.9 968.8
12 13.07 СЗ 2 50 км {ливн. осадки} 10/4 300 м
[Cb calv Ac trans Ci fib]
+17.2 +16.0 93 +18 +18 1009.7 968.5 +18.0 7
15 13.07 штиль 0 50 км 10/3 300 м
[St Ac trans Ci fib]
+14.8 +14.6 99 +14 +14 1010.0 968.5
18 13.07 СЗ 2 20 км туман на расстоянии 10/0
[Ac trans Ci fib]
+14.0 +14.0 100 +13 +13 1009.7 968.0
21 13.07 СЗ 2 20 км 10/0
[Ac trans Ci fib]
+15.0 +14.3 96 +15 +15 1009.4 967.9
00 14.07 С 1 20 км 10/0
[Ac trans Ci fib]
+20.6 +14.3 67 +24 +28 комфорт 1008.7 967.9 +14.0
03 14.07 СЗ 3 50 км 10/1 1000 м
[Cu hum Ac As Ci fib]
+21.7 +13.6 60 +24 +29 комфорт 1008.5 968.0
06 14.07 С 2 50 км 10/0
[Ac As Ci fib]
+21.9 +12.8 56 +24 +29 комфорт 1008.6 968.1
09 14.07 СВ 2 50 км 10/1 1000 м
[Cu hum Ac trans Ci fib]
+23.5 +12.7 51 +26 +28 жарко 1008.1 967.7
12 14.07 СВ 2 50 км 10/0
[Ac trans Ci fib]
+22.3 +13.7 58 +25 +26 комфорт 1009.1 968.6 +23.7
15 14.07 С 2 50 км 9/0
[Ac trans]
+18.8 +13.4 71 +20 +20 1010.5 969.5
18 14.07 СВ 2 50 км 10/4 1000 м
[Cb cap Ac As]
+17.0 +15.1 89 +17 +17 1011.1 969.9
21 14.07 СВ 4 50 км 10/3 600 м
[Cb cap Ac As]
+17.3 +14.9 86 +17 +17 1011.6 970.4
00 15.07 СВ 4 50 км 10/5 720 м
[Cb cap Ac As]
+17.7 +17.7 100 +17 +18 1012.3 971.1 +16.9
03 15.07 СВ 5 50 км 10/8 1300 м
[Cb cap Ac As]
+19.4 +15.7 79 +21 +21 комфорт 1013.0 971.9
06 15.07 В 6-10
{11}
50 км {ливн. осадки} 10/5 1000 м
[Cb cap Ac trans Ci fib]
+20.4 +14.0 67 +23 +24 комфорт 1013.6 972.7
09 15.07 В 5
{10}
50 км 10/4 1000 м
[Sc Ac trans Ci fib]
+21.9 +14.0 61 +25 +26 комфорт 1012.9 972.2
12 15.07 СВ 2 20 км 10/0
[Ac trans Ci fib]
+21.3 +13.7 62 +24 +24 комфорт 1013.2 972.4 +22.3 0.5
15 15.07 С 3 50 км 10/0
[Ac trans Ci fib]
+17.5 +14.2 81 +18 +18 1014.6 973.2
18 15.07 С 2 50 км 10/0
[Ac As Ci fib]
+14.6 +11.4 81 +14 +14 1015.4 973.5
21 15.07 СВ 2 50 км 10/0
[Ac As Ci fib]
+14.7 +10.3 75 +14 +15 1015.7 973.8
00 16.07 СВ 3 50 км 3/0
[Ci fib]
+20.0 +12.2 61 +22 +26 комфорт 1015.8 974.7 +13.0
03 16.07 В 5 50 км ясно +22.6 +9.3 43 +24 +30 комфорт 1015.3 974.5
06 16.07 СВ 4 50 км 3/0
[Ci fib]
+24.9 +7.8 34 +25 +32 комфорт 1013.6 973.2
09 16.07 СВ 3 50 км ясно +25.5 +7.7 32 +26 +30 жарко 1012.5 972.3

 

Местоположение метеостанции Мирный (Якутия, Россия): широта 62.53 долгота 113.80 высота над уровнем моря 357 м.

В архиве по умолчанию представлена погода в Мирном за последнюю неделю. Архивные данные за месяц целиком и за предыдущие месяцы, начиная с января 2011 года, Вы можете получить, выбрав интересующий диапазон дат из раскрывающегося списка и нажав кнопку "Ввод!".


*Определитесь, кто Вы:
робот инопланетянин человек

Внимание! Время в таблицах - всемирное. Для получения местного времени необходимо прибавить поправку, которая равна 9 ч.

Смотрите также архив погоды в соседних городах и на ближайших метеорологических станциях:

Погода в Чернышевском (Якутия, Россия) (90 км)
Погода в Дорожном (Якутия, Россия) (109 км)
Погода в Крестяхе (Якутия, Россия) (122 км)
Погода в Туой-Хае (Якутия, Россия) (133 км)
Погода в Сунтаре (Якутия, Россия) (200 км)
Погода в Ленске (Якутия, Россия) (208 км)
Погода в Хабардино (Якутия, Россия) (239 км)
Погода в Нюрбе (Якутия, Россия) (243 км)
Погода в Чумпуруке (Якутия, Россия) (244 км)
Погода в Комаке (Якутия, Россия) (275 км)

Пояснения к столбцам:

Ветер - указаны скорость ветра в м/с - средняя за 10 мин, порывы в срок и между сроками (в фигурных скобках) и направление, откуда дует ветер: С - северный, СВ - северо-восточный, В - восточный, ЮВ - юго-восточный, Ю - южный, ЮЗ - юго-западный, З - западный, СЗ - северо-западный.
Видимость - горизонтальная дальность видимости в метрах или километрах. При видимости от 1 до 10 км при отсутствии осадков обычно наблюдается дымка, при ухудшении видимости до 1 км и менее - туман. В сухую погоду видимость может ухудшаться дымом, пылью или мглою.
Явления - указаны атмосферные явления, наблюдавшиеся в срок или в последний час перед сроком; фигурными скобками обозначены явления, наблюдавшиеся между сроками (за 1-3 часа до срока); квадратными скобками обозначены град или гололедные отложения с указанием их диаметра в мм.
Облачность - указаны через наклонную черту общая и нижняя облачность в баллах и высота нижней границы облаков в метрах; квадратными скобками обозначены формы облаков: Ci - перистые, Cs - перисто-слоистые, Cc - перисто-кучевые, Ac - высококучевые, As - высокослоистые, Sc - слоисто-кучевые, Ns - слоисто-дождевые, Cu - кучевые, Cb - кучево-дождевые. Подробнее классификацию облаков см. в Атласе облаков (PDF).
T - Температура воздуха - температура, измеренная на высоте 2 м над землей.
Td - Температура точки росы - температура, при понижении до которой содержащийся в воздухе водяной пар достигнет насыщения.
f - Относительная влажность воздуха - влажноcть воздуха, измеренная на высоте 2 м над землей.
Te - Эффективная температура - температура, которую ощущает одетый по сезону человек в тени. Характеристика душности погоды. При расчете учитывается влияние влажности воздуха и скорости ветра на теплоощущения человека.
Tes - Эффективная температура на солнце - температура, которую ощущает человек, с поправкой на солнечный нагрев. Характеристика знойности погоды. Зависит от высоты солнца над горизонтом, облачности и скорости ветра. Ночью, в пасмурную погоду, а также при ветре 12 м/с и более поправка равна нулю.
P - Атмосферное давление - приведенное к уровню моря атмосферное давление.
Po - Атмосферное давление - измеренное на уровне метеостанции атмосферное давление.
Tmin - Минимальная температура - минимум температуры воздуха на высоте 2 м над землей.
Tmax - Максимальная температура - максимум температуры воздуха на высоте 2 м над землей.
R - Количество осадков - Количество выпавших осадков за период времени, мм. При наведении курсора мыши на число - период времени, за который выпало указанное количество осадков.
R24 - Количество осадков - Количество выпавших осадков за 24 часа, мм.
S - Снежный покров - Высота снежного покрова, см. При наведении курсора мыши на число - состояние снежного покрова и степень покрытия местности в баллах.